This is the latest recevied weather packets stored in our database for station/object KI8L. If no packets are shown the sender has not sent any weather packets the latest 1 day(s).
| Time | Temp. | Humidity | Pressure | Rain* | Wind** | Luminosity | Snow |
|---|---|---|---|---|---|---|---|
| 1778039100 | 8.89° C | 99% | 1010.9 hPa | 4.32 mm | 1.34 m/s, 20° | 0 W/m² | - |
| 1778038797 | 9.44° C | 99% | 1011 hPa | 4.83 mm | 0.89 m/s, 12° | 0 W/m² | - |
| 1778038495 | 9.44° C | 99% | 1011 hPa | 3.05 mm | 0 m/s | 0 W/m² | - |
| 1778038191 | 9.44° C | 99% | 1011.1 hPa | 1.27 mm | 0.89 m/s, 345° | 0 W/m² | - |
| 1778037889 | 9.44° C | 99% | 1011.1 hPa | 1.78 mm | 0.45 m/s, 38° | 0 W/m² | - |
| 1778037584 | 9.44° C | 99% | 1011.2 hPa | 3.05 mm | 0.89 m/s, 354° | 0 W/m² | - |
| 1778037282 | 9.44° C | 99% | 1011.3 hPa | 1.27 mm | 0.45 m/s, 354° | 0 W/m² | - |
| 1778036980 | 9.44° C | 99% | 1011.5 hPa | 1.78 mm | 0.89 m/s, 353° | 0 W/m² | - |
| 1778036678 | 9.44° C | 99% | 1011.4 hPa | 3.56 mm | 0.45 m/s, 358° | 0 W/m² | - |
| 1778036374 | 9.44° C | 99% | 1011.4 hPa | 1.78 mm | 0.89 m/s, 359° | 0 W/m² | - |
| 1778036071 | 9.44° C | 99% | 1011.3 hPa | 3.05 mm | 0.45 m/s, 353° | 0 W/m² | - |
| 1778035768 | 9.44° C | 99% | 1011.4 hPa | 1.27 mm | 0.89 m/s, 359° | 0 W/m² | - |
| 1778035465 | 9.44° C | 99% | 1011.4 hPa | 1.78 mm | 0.89 m/s, 43° | 0 W/m² | - |
| 1778035160 | 9.44° C | 99% | 1011.2 hPa | 1.78 mm | 0.45 m/s, 353° | 0 W/m² | - |
| 1778034858 | 9.44° C | 99% | 1011.2 hPa | 1.27 mm | 1.79 m/s, 19° | 0 W/m² | - |
| 1778034554 | 9.44° C | 99% | 1011.4 hPa | 3.05 mm | 0.89 m/s, 16° | 0 W/m² | - |
| 1778034252 | 9.44° C | 99% | 1011.7 hPa | 4.83 mm | 0.45 m/s, 12° | 0 W/m² | - |
| 1778033950 | 10° C | 99% | 1011.3 hPa | 4.32 mm | 0.89 m/s, 355° | 0 W/m² | - |
| 1778033647 | 10° C | 99% | 1011.4 hPa | 3.05 mm | 0.45 m/s, 355° | 0 W/m² | - |
| 1778033343 | 10° C | 99% | 1011.4 hPa | 4.83 mm | 0 m/s | 0 W/m² | - |
| 1778033042 | 10° C | 99% | 1011.5 hPa | 4.32 mm | 0 m/s | 0 W/m² | - |
| 1778032738 | 10° C | 99% | 1011.1 hPa | 3.05 mm | 0.89 m/s, 353° | 0 W/m² | - |
| 1778032436 | 10° C | 99% | 1011.1 hPa | 3.56 mm | 0.45 m/s, 56° | 0 W/m² | - |
| 1778032133 | 10° C | 99% | 1010.7 hPa | 3.05 mm | 0.89 m/s, 43° | 0 W/m² | - |
| 1778031830 | 10° C | 99% | 1010.9 hPa | 3.05 mm | 0.89 m/s, 358° | 0 W/m² | - |
* Rain latest hour (hover to see other rain measurements)
** Current wind speed in m/s (hover to see current wind gust speed)